[[{"header":{"parameterUnit":"m.s-1","parameterCategory":1,"la1":30.2991,"la2":30.254,"lo1":-89.0895,"lo2":-89.0444,"dy":0.0017,"dx":0.0017,"nx":28,"ny":28,"refTime":"2025-07-08T03:00:00:Z","depth":0,"parameterNumber":2,"parameterNumberName":"U-component_of_WINDS"},"data":[0,0,0,0,0,0,0,0,0,0,0,0,0,0,0,0,0,0,0,0,0,0,0,0,0,0,0,0,0,0,0,0,0,0,0,0,0,0,0,0,0,0,0,0,0,0,0,0,0,0,0,0,0,0,0,0,0,0,4.6436,4.6437,0,4.6514,4.6515,4.6516,4.6392,4.6388,4.6384,4.638,4.6458,4.6464,4.647,0,0,0,0,0,0,0,0,0,0,0,0,0,4.6179,4.6185,4.6436,4.6437,4.6438,4.6514,4.6515,4.6516,4.6393,4.6388,4.6383,4.6378,4.6456,4.6464,4.6471,0,0,0,0,0,0,0,0,0,0,0,0,0,4.6277,4.6187,4.6436,4.6386,4.6382,4.6513,4.6515,4.6516,4.6394,4.6388,4.6381,4.6375,4.6454,4.6463,4.6472,4.6655,0,0,4.65,4.6503,0,0,0,0,0,0,0,0,4.6272,4.6287,4.6393,4.639,4.6386,4.6437,4.6453,4.6563,4.6396,4.639,4.638,4.6372,4.6456,4.6465,4.6493,4.6659,4.6662,4.65,4.6506,4.651,4.6512,0,0,0,0,0,0,0,4.6265,4.6283,4.6467,4.6394,4.639,4.6359,4.6366,4.6473,4.6458,4.639,4.6381,4.6392,4.6453,4.6485,4.6494,4.6663,4.65,4.6508,4.6514,4.6517,4.6979,4.6986,0,0,0,0,0,0,4.6265,4.6278,4.6464,4.6469,4.6312,4.6369,4.6376,4.6427,4.6456,4.6455,4.6397,4.6386,4.6472,4.6484,4.6497,4.671,4.651,4.6518,4.6523,4.6972,4.6981,4.6988,0,0,0,0,0,0,4.626,4.6283,4.6461,4.6371,4.6392,4.638,4.6438,4.6432,4.6463,4.6462,4.6458,4.6433,4.6468,4.6484,4.6616,4.6712,4.6522,4.653,4.6964,4.6975,4.6984,4.7142,0,0,0,0,0,0,4.6253,4.6282,4.6352,4.6374,4.6397,4.6581,4.6444,4.6438,4.6479,4.6465,4.6494,4.6493,4.6464,4.6603,4.6625,4.6721,4.6538,4.6956,4.6969,4.6981,4.7128,4.7156,4.718,0,0,0,0,0,4.6244,4.6394,4.6356,4.638,4.6485,4.6587,4.66,4.6564,4.6488,4.6557,4.6556,4.6492,4.6698,4.6618,4.6641,4.6741,4.6949,4.6965,4.698,4.7116,4.7151,4.718,0,0,0,0,0,0,4.6384,4.6396,4.6354,4.6516,4.6551,4.6566,4.6653,4.6602,4.666,4.6644,4.6597,4.6604,4.6746,4.6757,4.6667,4.6918,4.6811,4.6831,4.6906,4.6939,4.6964,4.6958,4.6545,0,0,0,0,0,4.6434,4.6516,4.6522,4.6663,4.6683,4.6665,4.6708,4.6678,4.6712,4.6726,4.6735,4.677,4.6842,4.6891,4.6958,4.7129,4.7132,4.7209,4.7235,4.7257,4.7275,4.7363,4.7397,4.7039,4.7038,4.7038,0,0,4.6537,4.6554,4.6609,4.6692,4.6715,4.68,4.6679,4.6775,4.6837,4.6741,4.6865,4.6873,4.6909,4.7061,4.7128,4.7074,4.7375,4.7276,4.7294,4.73,4.7383,4.7417,4.7447,4.7049,4.7047,4.7045,0,0,4.6768,4.679,4.6909,4.6935,4.6972,4.6959,4.6988,4.701,4.7011,4.7135,4.7064,4.7137,4.7263,4.7291,4.7322,4.7562,4.7504,4.7585,4.7721,4.7808,4.7836,4.7861,4.7944,4.7975,4.7603,4.7603,4.7604,0,4.6892,4.7018,4.6977,4.7077,4.7115,4.7031,4.715,4.7177,4.7235,4.7262,4.7201,4.7356,4.7375,4.753,4.7588,4.7617,4.7647,4.7581,4.7835,4.786,4.7882,4.7961,4.7993,4.7613,4.7612,4.7611,4.761,0,4.7167,4.7255,4.7347,4.7403,4.7451,4.7561,4.7535,4.7588,4.7553,4.7546,4.7672,4.7691,4.7759,4.7794,4.7761,4.7944,4.7909,4.7843,4.7733,4.7926,4.8,4.803,4.7626,4.7623,4.762,4.7618,0,0,4.7489,4.752,4.7555,4.7578,4.7612,4.7679,4.7783,4.785,4.7895,4.7937,4.8022,4.813,4.8067,4.8102,4.8071,4.8148,4.8333,4.8071,4.8071,4.8118,4.8534,4.8583,4.8619,4.8295,4.8301,4.8305,4.853,0,4.7718,4.7899,4.7864,4.804,4.8119,4.804,4.8131,4.8161,4.8156,4.8222,4.8217,4.8293,4.8206,4.8226,4.8298,4.8296,4.8416,4.8279,4.8372,4.8376,4.8365,4.8657,4.871,4.8921,4.8559,4.8563,4.8567,0,4.8009,4.8061,4.8245,4.8264,4.8296,4.8378,4.8434,4.8499,4.853,4.8521,4.856,4.8514,4.8615,4.8505,4.8644,4.8551,4.8587,4.8592,4.8599,4.8605,4.8483,4.867,4.8988,4.9019,4.8612,4.8608,4.8605,0,4.8223,4.8339,4.8464,4.8487,4.8512,4.8571,4.8585,4.861,4.8651,4.87,4.8725,4.8786,4.8819,4.8866,4.8837,4.876,4.898,4.8868,4.8974,4.8975,4.9023,4.902,4.935,4.9049,4.9049,4.9048,4.9047,0,4.8482,4.8597,4.856,4.8637,4.8762,4.872,4.8845,4.8849,4.8872,4.8946,4.8882,4.8953,4.891,4.8977,4.8955,4.9072,4.9088,4.9082,4.9074,4.9087,4.9088,4.9109,4.9094,4.9056,4.9054,4.9053,4.9051,0,4.8743,4.8723,4.8852,4.8866,4.8871,4.8963,4.8974,4.9044,4.9034,4.9129,4.9149,4.9133,4.9208,4.9184,4.9265,4.925,4.9398,4.9372,4.9387,4.938,4.9487,4.9477,4.9841,4.9886,4.9558,4.9561,4.9564,0,4.8908,4.8995,4.9017,4.9062,4.908,4.9154,4.9195,4.9156,4.9202,4.9242,4.9307,4.9377,4.9431,4.9555,4.955,4.9611,4.9585,4.9709,4.9594,4.9603,4.9585,4.958,4.9587,4.9732,4.9735,4.9738,4.9741,0,4.9204,4.9189,4.9251,4.931,4.9361,4.9405,4.9443,4.9484,4.9447,4.9501,4.9577,4.9619,4.9701,4.977,4.9825,4.9837,4.9783,4.9777,4.9804,4.9818,4.9823,4.982,4.9448,4.9769,4.9766,4.9764,4.9762,4.9761,4.9421,4.9493,4.9519,4.959,4.9614,4.9651,4.9717,4.9715,4.9778,4.9842,4.9815,4.9902,4.9928,4.9996,5.0015,5.0082,5.0034,5.0075,5.0085,5.0095,5.0108,4.9813,5.0092,5.0091,5.0091,5.009,5.0089,0,4.9711,4.9724,4.9789,4.9844,4.99,4.9844,4.9882,4.9932,5.001,5.0039,5.0093,5.0179,5.0245,5.0245,5.0306,5.036,5.0336,5.0377,5.0372,5.0375,5.0148,5.0117,5.0395,5.0395,5.0395,5.0394,5.0394,5.0394,4.9869,4.9988,4.9976,5.0105,5.0116,5.0201,5.0228,5.026,5.0283,5.0383,5.0437,5.0437,5.0453,5.0515,5.0572,5.057,5.0595,5.0645,5.0634,5.0422,5.0391,5.0362,5.0333,5.0651,5.0652,5.0855,5.0857,5.0858]},{"header":{"parameterUnit":"m.s-1","parameterCategory":1,"la1":30.2991,"la2":30.254,"lo1":-89.0895,"lo2":-89.0444,"dy":0.0017,"dx":0.0017,"nx":28,"ny":28,"refTime":"2025-07-08T03:00:00:Z","depth":0,"parameterNumber":3,"parameterNumberName":"V-component_of_WINDS"},"data":[0,0,0,0,0,0,0,0,0,0,0,0,0,0,0,0,0,0,0,0,0,0,0,0,0,0,0,0,0,0,0,0,0,0,0,0,0,0,0,0,0,0,0,0,0,0,0,0,0,0,0,0,0,0,0,0,0,0,4.1018,4.1019,0,4.1087,4.1088,4.1088,4.1055,4.1053,4.1051,4.105,4.1116,4.1119,4.1122,0,0,0,0,0,0,0,0,0,0,0,0,0,4.0852,4.0856,4.1018,4.1019,4.102,4.1087,4.1088,4.1089,4.1055,4.1053,4.1051,4.1049,4.1115,4.1119,4.1123,0,0,0,0,0,0,0,0,0,0,0,0,0,4.0923,4.0857,4.1018,4.1011,4.1011,4.1087,4.1088,4.1089,4.1056,4.1053,4.105,4.1048,4.1113,4.1118,4.1123,4.1208,0,0,4.1139,4.1141,0,0,0,0,0,0,0,0,4.0919,4.0929,4.1012,4.1012,4.1012,4.106,4.1053,4.1129,4.1056,4.1039,4.105,4.1046,4.1099,4.1105,4.1124,4.1211,4.1214,4.1139,4.1142,4.1145,4.1146,0,0,0,0,0,0,0,4.0914,4.0926,4.1045,4.1013,4.1013,4.1003,4.101,4.1067,4.1083,4.104,4.1038,4.1047,4.1099,4.1119,4.1125,4.1215,4.1139,4.1144,4.1147,4.1149,4.1371,4.1373,0,0,0,0,0,0,4.091,4.0922,4.1043,4.1047,4.0958,4.1008,4.1016,4.1047,4.1082,4.1085,4.1049,4.1045,4.1111,4.1119,4.1127,4.1226,4.1144,4.1149,4.1152,4.1368,4.1371,4.1374,0,0,0,0,0,0,4.0907,4.0921,4.104,4.0984,4.0999,4.1014,4.1049,4.105,4.107,4.1089,4.1091,4.1067,4.111,4.112,4.1187,4.1228,4.1152,4.1156,4.1365,4.1369,4.1373,4.1425,0,0,0,0,0,0,4.0902,4.092,4.0954,4.0985,4.1002,4.1101,4.1051,4.1053,4.1079,4.1075,4.1106,4.1109,4.1108,4.118,4.1192,4.1233,4.116,4.1361,4.1367,4.1372,4.142,4.1431,4.144,0,0,0,0,0,4.0896,4.0966,4.0956,4.0971,4.1044,4.1104,4.1113,4.1112,4.1083,4.1116,4.1127,4.1108,4.1222,4.1187,4.1201,4.1244,4.1358,4.1365,4.1371,4.1416,4.1429,4.144,0,0,0,0,0,0,4.0938,4.097,4.0959,4.1041,4.107,4.1098,4.114,4.1127,4.1163,4.1157,4.1153,4.1161,4.123,4.1244,4.1205,4.1326,4.1285,4.1295,4.1314,4.1327,4.1337,4.1331,4.1164,0,0,0,0,0,4.0957,4.1005,4.1029,4.1099,4.1114,4.1125,4.115,4.1147,4.1176,4.1188,4.1205,4.1232,4.1274,4.1301,4.1341,4.1422,4.1427,4.1458,4.1468,4.1476,4.1484,4.1525,4.1538,4.1395,4.1395,4.1395,0,0,4.0996,4.102,4.105,4.1108,4.113,4.1176,4.1135,4.1187,4.1221,4.1195,4.126,4.1273,4.1303,4.1377,4.1411,4.1391,4.1525,4.1485,4.1491,4.1494,4.1533,4.1546,4.1558,4.14,4.1399,4.1398,0,0,4.1091,4.1115,4.1174,4.1197,4.1231,4.1238,4.1252,4.1282,4.1289,4.1354,4.1335,4.1375,4.1448,4.1469,4.149,4.1591,4.1573,4.1604,4.1655,4.1695,4.1707,4.1716,4.175,4.1762,4.1612,4.1612,4.1612,0,4.1135,4.1207,4.1206,4.1259,4.1284,4.1264,4.1323,4.1344,4.1389,4.1406,4.1383,4.1472,4.1492,4.1569,4.1594,4.1612,4.1626,4.1599,4.1705,4.1715,4.1724,4.1756,4.1769,4.1615,4.1615,4.1614,4.1614,0,4.1258,4.1307,4.1351,4.1395,4.1425,4.1481,4.1486,4.1516,4.151,4.1518,4.1583,4.1605,4.1647,4.1666,4.1661,4.1742,4.1728,4.1706,4.1665,4.1741,4.1771,4.1783,4.162,4.1619,4.1618,4.1617,0,0,4.1381,4.1423,4.1439,4.1458,4.1493,4.153,4.1584,4.1626,4.1651,4.1682,4.1725,4.1786,4.1765,4.1788,4.1785,4.182,4.1895,4.1793,4.1793,4.1809,4.1983,4.1998,4.2012,4.1885,4.1887,4.1889,4.1979,0,4.1476,4.1571,4.1571,4.1658,4.1702,4.1683,4.1729,4.1754,4.1763,4.18,4.1808,4.1851,4.1821,4.1835,4.1869,4.1879,4.193,4.1873,4.1922,4.1923,4.1913,4.2028,4.2045,4.2129,4.1991,4.1993,4.1995,0,4.16,4.1635,4.1727,4.1754,4.1772,4.1814,4.1851,4.1888,4.1915,4.1919,4.1944,4.1935,4.1986,4.1945,4.2014,4.1976,4.1995,4.2003,4.2006,4.2009,4.1962,4.2031,4.2156,4.2168,4.2013,4.2012,4.2011,0,4.1677,4.1748,4.1811,4.1828,4.1861,4.189,4.1906,4.1931,4.1955,4.1988,4.2003,4.2041,4.2061,4.209,4.209,4.206,4.2159,4.2118,4.2161,4.2161,4.2181,4.2179,4.2308,4.2198,4.2198,4.2197,4.2197,0,4.1782,4.1838,4.1845,4.1884,4.1945,4.1944,4.2004,4.2016,4.2038,4.2077,4.2063,4.2099,4.2098,4.2134,4.2134,4.219,4.22,4.2202,4.2201,4.2202,4.2202,4.2214,4.2207,4.2201,4.22,4.2199,4.2199,0,4.1878,4.1886,4.1952,4.1979,4.1987,4.203,4.2051,4.2087,4.2094,4.2143,4.2154,4.2164,4.2206,4.2209,4.2258,4.2258,4.2324,4.2318,4.2315,4.2313,4.2355,4.235,4.2494,4.2512,4.2392,4.2394,4.2395,0,4.1943,4.1986,4.2016,4.2042,4.2059,4.21,4.2125,4.2125,4.2151,4.2185,4.2215,4.2256,4.2288,4.2355,4.2366,4.2402,4.2395,4.2443,4.24,4.2399,4.2392,4.2389,4.2391,4.245,4.2452,4.2453,4.2454,0,4.2057,4.2059,4.2096,4.2135,4.2165,4.2195,4.2223,4.2244,4.2247,4.2277,4.232,4.2345,4.2394,4.2434,4.2469,4.2482,4.2467,4.2467,4.2479,4.2479,4.2474,4.2474,4.2335,4.2464,4.2463,4.2462,4.2461,4.2461,4.2138,4.2174,4.22,4.2242,4.2263,4.2289,4.2323,4.2334,4.2371,4.2411,4.2409,4.2455,4.2479,4.2525,4.2541,4.2575,4.2559,4.2576,4.258,4.2583,4.2586,4.2471,4.2582,4.2582,4.2582,4.2581,4.2581,0,4.2249,4.2265,4.2303,4.2343,4.2375,4.2361,4.239,4.2417,4.2459,4.2483,4.2515,4.2563,4.2601,4.2614,4.265,4.2675,4.2669,4.2685,4.2681,4.2684,4.26,4.2586,4.2689,4.2689,4.2689,4.2689,4.2689,4.2689,4.231,4.2369,4.2373,4.2442,4.2457,4.2503,4.2521,4.2544,4.2563,4.2618,4.2649,4.2658,4.2677,4.2715,4.2748,4.275,4.2763,4.278,4.278,4.2701,4.269,4.268,4.2666,4.2784,4.2784,4.286,4.2861,4.2862]}]]